Change the Weather History Date:

Friday, February 22, 2013

  Actual Average Record
Temperature  
Mean Temperature 66 °F -  
Max Temperature 79 °F - - ()
Min Temperature 52 °F - - ()
Growing Degree Days 16 (Base 50)    
Moisture  
Dew Point 43 °F    
Average Humidity 49    
Maximum Humidity 82    
Minimum Humidity 19    
Precipitation  
Precipitation 0.00 in - - ()
Sea Level Pressure  
Sea Level Pressure 30.07 in    
Wind  
Wind Speed 7 mph ()    
Max Wind Speed 15 mph    
Max Gust Speed 20 mph    
Visibility 6.2 miles    
Events      
T = Trace of Precipitation, MM = Missing Value Source: Averaged Metar Reports

Daily Weather History Graph

Daily Weather History Graph

Search for Another Location

Airport or City:

Trip Planner

Search our weather history database for the weather conditions in past years. The results will help you decide how hot, cold, wet, or windy it might be!

Date:

Astronomy

Feb. 22, 2013 Rise Set
Actual Time 6:03 AM AST 5:32 PM AST
Civil Twilight 5:40 AM AST 5:56 PM AST
Nautical Twilight 5:13 AM AST 6:22 PM AST
Astronomical Twilight 4:47 AM AST 6:49 PM AST
Moon 2:34 PM AST (2/22) 3:19 AM AST (2/22)
Length of Visible Light 12h 15m
Length of Day
11h 29m
Waxing Gibbous, 88% of the Moon is Illuminated
Feb 22
Waxing Gibbous
Feb 25
Full
Mar 5
Last Quarter
Mar 11
New
Mar 19
First Quarter

Hourly Weather History & Observations

Time (AST) Temp. Dew Point Humidity Pressure Visibility Wind Dir Wind Speed Gust Speed Precip Events Conditions
12:55 AM 57.4 °F 46.2 °F 66% 30.05 in 6.2 mi WNW 5.8 mph - N/A   Clear
1:55 AM 57.2 °F 46.9 °F 69% 30.04 in 6.2 mi NW 8.1 mph - N/A   Clear
2:55 AM 56.5 °F 46.6 °F 69% 30.04 in 6.2 mi WNW 6.9 mph - N/A   Clear
3:55 AM 53.8 °F 46.6 °F 77% 30.04 in 6.2 mi WNW 5.8 mph - N/A   Clear
4:55 AM 52.5 °F 44.6 °F 74% 30.05 in 6.2 mi West 6.9 mph - N/A   Clear
5:55 AM 52.5 °F 46.6 °F 80% 30.07 in 6.2 mi West 6.9 mph - N/A   Clear
6:55 AM 53.1 °F 47.7 °F 82% 30.10 in 6.2 mi West 5.8 mph - N/A   Clear
7:55 AM 60.4 °F 54.3 °F 80% 30.12 in 6.2 mi WNW 6.9 mph - N/A   Clear
8:55 AM 68.0 °F 53.2 °F 59% 30.13 in 6.2 mi NW 9.2 mph - N/A   Clear
9:55 AM 73.9 °F 42.1 °F 32% 30.14 in 6.2 mi NNW 13.8 mph - N/A   Partly Cloudy
10:55 AM 76.3 °F 39.9 °F 27% 30.12 in 6.2 mi NW 11.5 mph - N/A   Scattered Clouds
11:55 AM 78.3 °F 36.7 °F 22% 30.09 in 6.2 mi NNW 12.7 mph 18.4 mph N/A   Scattered Clouds
12:55 PM 79.0 °F 33.8 °F 19% 30.06 in 6.2 mi NW 13.8 mph - N/A   Partly Cloudy
1:55 PM 79.0 °F 37.6 °F 23% 30.05 in 6.2 mi WNW 12.7 mph - N/A   Partly Cloudy
2:55 PM 78.1 °F 36.1 °F 22% 30.04 in 6.2 mi NW 15.0 mph - N/A   Clear
3:55 PM 77.0 °F 31.6 °F 19% 30.05 in 6.2 mi NW 15.0 mph 19.6 mph N/A   Clear
4:55 PM 74.7 °F 33.4 °F 22% 30.06 in 6.2 mi NW 12.7 mph - N/A   Clear
5:55 PM 70.5 °F 37.0 °F 29% 30.06 in 6.2 mi NW 9.2 mph - N/A   Clear
6:55 PM 66.2 °F 36.9 °F 34% 30.06 in 6.2 mi NNW 6.9 mph - N/A   Clear
7:55 PM 67.5 °F 35.4 °F 31% 30.07 in 6.2 mi North 9.2 mph - N/A   Clear
8:55 PM 65.3 °F 41.7 °F 42% 30.07 in 6.2 mi NNE 8.1 mph - N/A   Clear
9:55 PM 63.9 °F 48.7 °F 58% 30.06 in 6.2 mi North 6.9 mph - N/A   Clear
10:55 PM 62.2 °F 51.4 °F 68% 30.06 in 6.2 mi North 4.6 mph - N/A   Clear
11:55 PM 56.8 °F 47.3 °F 70% 30.06 in 6.2 mi Calm Calm - N/A   Clear